Time,TemperatureF,DewpointF,PressureIn,WindDirection,WindDirectionDegrees,WindSpeedMPH,WindSpeedGustMPH,Humidity,HourlyPrecipIn,Conditions,Clouds,dailyrainin,SoftwareType,DateUTC
2013-05-16 00:00:00,69.4,62.6,29.92,West,259,0.0,0.0,79,0.00,,,0.00,Wunderground v.1.15,2013-05-16 04:00:00,
2013-05-16 00:10:00,69.2,62.0,29.92,West,259,0.0,0.0,78,0.00,,,0.00,Wunderground v.1.15,2013-05-16 04:10:00,
2013-05-16 00:20:00,68.9,61.8,29.92,West,259,0.0,0.0,78,0.00,,,0.00,Wunderground v.1.15,2013-05-16 04:20:00,
2013-05-16 00:30:00,68.7,61.6,29.92,West,259,0.0,0.0,78,0.00,,,0.00,Wunderground v.1.15,2013-05-16 04:30:00,
2013-05-16 00:40:00,68.5,61.7,29.92,West,259,0.0,0.0,79,0.00,,,0.00,Wunderground v.1.15,2013-05-16 04:40:00,
2013-05-16 00:50:00,68.4,61.6,29.92,West,259,0.0,0.0,79,0.00,,,0.00,Wunderground v.1.15,2013-05-16 04:50:00,
2013-05-16 01:00:00,68.2,61.8,29.92,West,259,0.0,0.0,80,0.00,,,0.00,Wunderground v.1.15,2013-05-16 05:00:00,
2013-05-16 01:10:00,67.9,61.5,29.92,West,259,0.0,0.0,80,0.00,,,0.00,Wunderground v.1.15,2013-05-16 05:10:00,
2013-05-16 01:20:00,67.6,61.2,29.92,West,259,0.0,0.0,80,0.00,,,0.00,Wunderground v.1.15,2013-05-16 05:20:00,
2013-05-16 01:30:00,67.2,61.2,29.91,West,259,0.0,0.0,81,0.00,,,0.00,Wunderground v.1.15,2013-05-16 05:30:00,
2013-05-16 01:40:00,66.7,60.7,29.91,West,259,0.0,0.0,81,0.00,,,0.00,Wunderground v.1.15,2013-05-16 05:40:00,
2013-05-16 01:50:00,66.2,60.5,29.91,West,259,0.0,0.0,82,0.00,,,0.00,Wunderground v.1.15,2013-05-16 05:50:00,
2013-05-16 02:00:00,65.9,60.6,29.91,West,259,0.0,0.0,83,0.00,,,0.00,Wunderground v.1.15,2013-05-16 06:00:00,
2013-05-16 02:10:00,65.7,60.4,29.91,West,259,0.0,0.0,83,0.00,,,0.00,Wunderground v.1.15,2013-05-16 06:10:00,
2013-05-16 02:20:00,65.6,60.3,29.90,West,259,0.0,0.0,83,0.00,,,0.00,Wunderground v.1.15,2013-05-16 06:20:00,
2013-05-16 02:30:00,65.4,60.4,29.91,West,259,0.0,0.0,84,0.00,,,0.00,Wunderground v.1.15,2013-05-16 06:30:00,
2013-05-16 02:40:00,65.1,60.1,29.90,West,259,0.0,0.0,84,0.00,,,0.00,Wunderground v.1.15,2013-05-16 06:40:00,
2013-05-16 02:50:00,64.8,59.9,29.90,West,259,0.0,0.0,84,0.00,,,0.00,Wunderground v.1.15,2013-05-16 06:50:00,
2013-05-16 03:00:00,64.5,59.9,29.90,West,259,0.0,0.0,85,0.00,,,0.00,Wunderground v.1.15,2013-05-16 07:00:00,
2013-05-16 03:10:00,64.1,59.5,29.90,West,259,0.0,0.0,85,0.00,,,0.00,Wunderground v.1.15,2013-05-16 07:10:00,
2013-05-16 03:20:00,63.7,59.1,29.90,West,259,0.0,0.0,85,0.00,,,0.00,Wunderground v.1.15,2013-05-16 07:20:00,
2013-05-16 03:30:00,63.4,59.1,29.90,West,259,0.0,0.0,86,0.00,,,0.00,Wunderground v.1.15,2013-05-16 07:30:00,
2013-05-16 03:40:00,63.2,58.9,29.90,West,259,0.0,0.0,86,0.00,,,0.00,Wunderground v.1.15,2013-05-16 07:40:00,
2013-05-16 03:50:00,62.9,58.6,29.90,West,259,0.0,0.0,86,0.00,,,0.00,Wunderground v.1.15,2013-05-16 07:50:00,
2013-05-16 04:00:00,62.5,58.3,29.90,West,259,0.0,0.0,86,0.00,,,0.00,Wunderground v.1.15,2013-05-16 08:00:00,
2013-05-16 04:10:00,62.2,58.3,29.90,West,259,0.0,0.0,87,0.00,,,0.00,Wunderground v.1.15,2013-05-16 08:10:00,
2013-05-16 04:20:00,62.0,58.1,29.90,West,259,0.0,0.0,87,0.00,,,0.00,Wunderground v.1.15,2013-05-16 08:20:00,
2013-05-16 04:30:00,61.8,57.9,29.90,West,259,0.0,0.0,87,0.00,,,0.00,Wunderground v.1.15,2013-05-16 08:30:00,
2013-05-16 04:40:00,61.5,57.6,29.91,West,259,0.0,0.0,87,0.00,,,0.00,Wunderground v.1.15,2013-05-16 08:40:00,
2013-05-16 04:50:00,61.3,57.4,29.91,West,259,0.0,0.0,87,0.00,,,0.00,Wunderground v.1.15,2013-05-16 08:50:00,
2013-05-16 05:00:00,61.1,57.5,29.91,West,259,0.0,0.0,88,0.00,,,0.00,Wunderground v.1.15,2013-05-16 09:00:00,
2013-05-16 05:10:00,61.1,57.5,29.91,West,259,0.0,0.0,88,0.00,,,0.00,Wunderground v.1.15,2013-05-16 09:10:00,
2013-05-16 05:20:00,61.0,57.7,29.91,West,259,0.0,0.0,89,0.00,,,0.00,Wunderground v.1.15,2013-05-16 09:20:00,
2013-05-16 05:30:00,60.8,57.2,29.92,West,259,0.0,0.0,88,0.00,,,0.00,Wunderground v.1.15,2013-05-16 09:30:00,
2013-05-16 05:40:00,60.4,56.8,29.92,West,259,0.0,0.0,88,0.00,,,0.00,Wunderground v.1.15,2013-05-16 09:40:00,
2013-05-16 05:50:00,60.0,56.4,29.92,West,259,0.0,0.0,88,0.00,,,0.00,Wunderground v.1.15,2013-05-16 09:50:00,
2013-05-16 06:00:00,59.8,56.6,29.92,West,259,0.0,0.0,89,0.00,,,0.00,Wunderground v.1.15,2013-05-16 10:00:00,
2013-05-16 06:10:00,59.7,56.5,29.92,West,259,0.0,0.0,89,0.00,,,0.00,Wunderground v.1.15,2013-05-16 10:10:00,
2013-05-16 06:20:00,59.6,56.4,29.92,West,259,0.0,0.0,89,0.00,,,0.00,Wunderground v.1.15,2013-05-16 10:20:00,
2013-05-16 06:30:00,59.4,56.2,29.93,West,259,0.0,0.0,89,0.00,,,0.00,Wunderground v.1.15,2013-05-16 10:30:00,
2013-05-16 06:40:00,59.3,56.1,29.93,West,259,0.0,0.0,89,0.00,,,0.00,Wunderground v.1.15,2013-05-16 10:40:00,
2013-05-16 06:50:00,59.4,56.5,29.93,West,259,0.0,0.0,90,0.00,,,0.00,Wunderground v.1.15,2013-05-16 10:50:00,
2013-05-16 07:00:00,59.6,56.7,29.94,West,259,0.0,0.0,90,0.00,,,0.00,Wunderground v.1.15,2013-05-16 11:00:00,
2013-05-16 07:10:00,59.8,56.9,29.94,West,259,0.0,0.0,90,0.00,,,0.00,Wunderground v.1.15,2013-05-16 11:10:00,
2013-05-16 07:20:00,60.2,57.3,29.94,West,259,0.0,0.0,90,0.00,,,0.00,Wunderground v.1.15,2013-05-16 11:20:00,
2013-05-16 07:30:00,60.9,58.3,29.94,West,259,0.0,0.0,91,0.00,,,0.00,Wunderground v.1.15,2013-05-16 11:30:00,
2013-05-16 07:40:00,61.3,58.3,29.94,West,259,0.0,0.0,90,0.00,,,0.00,Wunderground v.1.15,2013-05-16 11:40:00,
2013-05-16 07:50:00,61.9,59.2,29.95,West,259,0.0,0.0,91,0.00,,,0.00,Wunderground v.1.15,2013-05-16 11:50:00,
2013-05-16 08:00:00,62.5,59.8,29.95,West,259,0.0,0.0,91,0.00,,,0.00,Wunderground v.1.15,2013-05-16 12:00:00,
2013-05-16 08:10:00,63.3,60.6,29.96,West,259,0.0,0.0,91,0.00,,,0.00,Wunderground v.1.15,2013-05-16 12:10:00,
2013-05-16 08:20:00,64.3,61.6,29.96,West,259,0.0,0.0,91,0.00,,,0.00,Wunderground v.1.15,2013-05-16 12:20:00,
2013-05-16 08:30:00,65.6,62.6,29.96,West,259,0.0,0.0,90,0.00,,,0.00,Wunderground v.1.15,2013-05-16 12:30:00,
2013-05-16 08:40:00,66.7,63.4,29.96,West,259,0.0,0.0,89,0.00,,,0.00,Wunderground v.1.15,2013-05-16 12:40:00,
2013-05-16 08:50:00,68.0,64.0,29.96,West,259,0.0,0.0,87,0.00,,,0.00,Wunderground v.1.15,2013-05-16 12:50:00,
2013-05-16 09:00:00,69.5,64.8,29.96,West,259,0.0,0.0,85,0.00,,,0.00,Wunderground v.1.15,2013-05-16 13:00:00,
2013-05-16 09:10:00,71.0,65.6,29.97,West,259,0.0,0.0,83,0.00,,,0.00,Wunderground v.1.15,2013-05-16 13:10:00,
2013-05-16 09:20:00,72.4,65.5,29.97,West,259,0.0,0.0,79,0.00,,,0.00,Wunderground v.1.15,2013-05-16 13:20:00,
2013-05-16 09:30:00,73.6,65.9,29.97,NNW,332,0.0,0.0,77,0.00,,,0.00,Wunderground v.1.15,2013-05-16 13:30:00,
2013-05-16 09:40:00,74.9,66.4,29.97,NNE,17,0.0,0.0,75,0.00,,,0.00,Wunderground v.1.15,2013-05-16 13:40:00,
2013-05-16 09:50:00,76.0,65.9,29.97,NNE,17,0.0,0.0,71,0.00,,,0.00,Wunderground v.1.15,2013-05-16 13:50:00,
2013-05-16 10:00:00,76.8,66.3,29.97,NNE,13,0.0,2.0,70,0.00,,,0.00,Wunderground v.1.15,2013-05-16 14:00:00,
2013-05-16 10:10:00,77.8,66.0,29.97,WSW,252,1.0,3.0,67,0.00,,,0.00,Wunderground v.1.15,2013-05-16 14:10:00,
2013-05-16 10:20:00,78.4,65.7,29.97,NNE,20,1.0,1.0,65,0.00,,,0.00,Wunderground v.1.15,2013-05-16 14:20:00,
2013-05-16 10:30:00,79.2,65.1,29.97,NNE,20,0.0,0.0,62,0.00,,,0.00,Wunderground v.1.15,2013-05-16 14:30:00,
2013-05-16 10:40:00,79.4,66.2,29.97,NNE,20,0.0,0.0,64,0.00,,,0.00,Wunderground v.1.15,2013-05-16 14:40:00,
2013-05-16 10:50:00,79.0,63.9,29.97,WSW,245,0.0,0.0,60,0.00,,,0.00,Wunderground v.1.15,2013-05-16 14:50:00,
2013-05-16 11:00:00,78.7,65.0,29.98,West,261,0.0,0.0,63,0.00,,,0.00,Wunderground v.1.15,2013-05-16 15:00:00,
2013-05-16 11:10:00,78.7,65.0,29.98,West,261,0.0,0.0,63,0.00,,,0.00,Wunderground v.1.15,2013-05-16 15:10:00,
2013-05-16 11:20:00,78.6,64.5,29.98,West,264,0.0,1.0,62,0.00,,,0.00,Wunderground v.1.15,2013-05-16 15:20:00,
2013-05-16 11:30:00,79.1,63.5,29.98,West,264,1.0,1.0,59,0.00,,,0.00,Wunderground v.1.15,2013-05-16 15:30:00,
2013-05-16 11:40:00,80.1,64.0,29.98,NW,311,1.0,1.0,58,0.00,,,0.00,Wunderground v.1.15,2013-05-16 15:40:00,
2013-05-16 11:50:00,81.6,64.4,29.98,NNW,348,1.0,1.0,56,0.00,,,0.00,Wunderground v.1.15,2013-05-16 15:50:00,
2013-05-16 12:00:00,82.4,63.5,29.98,NNE,18,1.0,4.0,53,0.00,,,0.00,Wunderground v.1.15,2013-05-16 16:00:00,
2013-05-16 12:10:00,82.1,62.7,29.97,NNE,16,2.0,2.0,52,0.00,,,0.00,Wunderground v.1.15,2013-05-16 16:10:00,
2013-05-16 12:20:00,81.6,61.7,29.97,West,275,1.0,2.0,51,0.00,,,0.00,Wunderground v.1.15,2013-05-16 16:20:00,
2013-05-16 12:30:00,80.6,61.9,29.97,SSW,213,1.0,1.0,53,0.00,,,0.00,Wunderground v.1.15,2013-05-16 16:30:00,
2013-05-16 12:40:00,81.4,62.1,29.97,NNE,21,1.0,3.0,52,0.00,,,0.00,Wunderground v.1.15,2013-05-16 16:40:00,
2013-05-16 12:50:00,82.1,62.7,29.97,North,9,1.0,1.0,52,0.00,,,0.00,Wunderground v.1.15,2013-05-16 16:50:00,
2013-05-16 13:00:00,83.0,63.6,29.96,SSE,152,1.0,1.0,52,0.00,,,0.00,Wunderground v.1.15,2013-05-16 17:00:00,
2013-05-16 13:10:00,83.4,62.8,29.96,North,360,1.0,2.0,50,0.00,,,0.00,Wunderground v.1.15,2013-05-16 17:10:00,
2013-05-16 13:20:00,83.8,62.6,29.96,WSW,240,1.0,3.0,49,0.00,,,0.00,Wunderground v.1.15,2013-05-16 17:20:00,
2013-05-16 13:30:00,83.9,61.5,29.96,North,9,1.0,1.0,47,0.00,,,0.00,Wunderground v.1.15,2013-05-16 17:30:00,
2013-05-16 13:40:00,84.1,61.7,29.96,WNW,298,1.0,1.0,47,0.00,,,0.00,Wunderground v.1.15,2013-05-16 17:40:00,
2013-05-16 13:50:00,84.2,61.8,29.95,NNE,21,1.0,1.0,47,0.00,,,0.00,Wunderground v.1.15,2013-05-16 17:50:00,
2013-05-16 14:00:00,84.2,61.8,29.95,NNW,348,1.0,1.0,47,0.00,,,0.00,Wunderground v.1.15,2013-05-16 18:00:00,
2013-05-16 14:10:00,84.0,62.8,29.94,East,101,1.0,1.0,49,0.00,,,0.00,Wunderground v.1.15,2013-05-16 18:10:00,
2013-05-16 14:20:00,83.8,61.4,29.94,North,9,1.0,1.0,47,0.00,,,0.00,Wunderground v.1.15,2013-05-16 18:20:00,
2013-05-16 14:30:00,83.3,61.6,29.94,WSW,238,1.0,1.0,48,0.00,,,0.00,Wunderground v.1.15,2013-05-16 18:30:00,
2013-05-16 14:40:00,83.7,63.1,29.94,WSW,257,1.0,1.0,50,0.00,,,0.00,Wunderground v.1.15,2013-05-16 18:40:00,
2013-05-16 14:50:00,84.3,64.2,29.93,NW,310,0.0,1.0,51,0.00,,,0.00,Wunderground v.1.15,2013-05-16 18:50:00,
2013-05-16 15:00:00,83.6,62.4,29.94,West,261,1.0,1.0,49,0.00,,,0.00,Wunderground v.1.15,2013-05-16 19:00:00,
2013-05-16 15:10:00,83.0,61.9,29.93,WSW,240,0.0,0.0,49,0.00,,,0.00,Wunderground v.1.15,2013-05-16 19:10:00,
2013-05-16 15:20:00,82.9,62.4,29.93,WSW,240,0.0,0.0,50,0.00,,,0.00,Wunderground v.1.15,2013-05-16 19:20:00,
2013-05-16 15:30:00,82.8,62.8,29.93,SW,236,1.0,1.0,51,0.00,,,0.00,Wunderground v.1.15,2013-05-16 19:30:00,
2013-05-16 15:40:00,82.6,62.6,29.92,West,262,1.0,2.0,51,0.00,,,0.00,Wunderground v.1.15,2013-05-16 19:40:00,
2013-05-16 15:50:00,82.0,61.0,29.93,WSW,246,1.0,1.0,49,0.00,,,0.00,Wunderground v.1.15,2013-05-16 19:50:00,
2013-05-16 16:00:00,81.7,61.8,29.93,WSW,248,1.0,1.0,51,0.00,,,0.00,Wunderground v.1.15,2013-05-16 20:00:00,
2013-05-16 16:10:00,81.6,61.2,29.92,West,270,2.0,3.0,50,0.00,,,0.00,Wunderground v.1.15,2013-05-16 20:10:00,
2013-05-16 16:20:00,81.3,61.4,29.92,West,268,0.0,0.0,51,0.00,,,0.00,Wunderground v.1.15,2013-05-16 20:20:00,
2013-05-16 16:30:00,81.1,61.3,29.92,WNW,303,1.0,1.0,51,0.00,,,0.00,Wunderground v.1.15,2013-05-16 20:30:00,
2013-05-16 16:40:00,80.6,60.8,29.92,SW,231,1.0,1.0,51,0.00,,,0.00,Wunderground v.1.15,2013-05-16 20:40:00,
2013-05-16 16:50:00,80.3,60.5,29.92,West,264,1.0,1.0,51,0.00,,,0.00,Wunderground v.1.15,2013-05-16 20:50:00,
2013-05-16 17:00:00,80.0,62.9,29.92,West,264,0.0,0.0,56,0.00,,,0.00,Wunderground v.1.15,2013-05-16 21:00:00,
2013-05-16 17:10:00,79.9,63.8,29.92,West,264,0.0,0.0,58,0.00,,,0.00,Wunderground v.1.15,2013-05-16 21:10:00,
2013-05-16 17:20:00,79.7,63.6,29.92,West,264,0.0,0.0,58,0.00,,,0.00,Wunderground v.1.15,2013-05-16 21:20:00,
2013-05-16 17:30:00,79.3,64.7,29.92,West,264,0.0,0.0,61,0.00,,,0.00,Wunderground v.1.15,2013-05-16 21:30:00,
2013-05-16 17:40:00,79.3,65.6,29.93,West,264,0.0,0.0,63,0.00,,,0.00,Wunderground v.1.15,2013-05-16 21:40:00,
2013-05-16 17:50:00,79.2,66.4,29.93,West,264,0.0,0.0,65,0.00,,,0.00,Wunderground v.1.15,2013-05-16 21:50:00,
2013-05-16 18:00:00,79.0,66.2,29.93,West,264,0.0,0.0,65,0.00,,,0.00,Wunderground v.1.15,2013-05-16 22:00:00,
2013-05-16 18:10:00,78.7,66.8,29.93,West,264,0.0,0.0,67,0.00,,,0.00,Wunderground v.1.15,2013-05-16 22:10:00,
2013-05-16 18:20:00,78.2,67.2,29.93,West,264,0.0,0.0,69,0.00,,,0.00,Wunderground v.1.15,2013-05-16 22:20:00,
2013-05-16 18:30:00,77.8,67.2,29.93,West,264,0.0,0.0,70,0.00,,,0.00,Wunderground v.1.15,2013-05-16 22:30:00,
2013-05-16 18:40:00,77.6,67.9,29.93,West,264,0.0,0.0,72,0.00,,,0.00,Wunderground v.1.15,2013-05-16 22:40:00,
2013-05-16 18:50:00,77.1,67.0,29.93,West,264,0.0,0.0,71,0.00,,,0.00,Wunderground v.1.15,2013-05-16 22:50:00,
2013-05-16 19:00:00,76.8,66.7,29.93,West,264,0.0,0.0,71,0.00,,,0.00,Wunderground v.1.15,2013-05-16 23:00:00,
2013-05-16 19:10:00,76.7,67.4,29.93,West,264,0.0,0.0,73,0.00,,,0.00,Wunderground v.1.15,2013-05-16 23:10:00,
2013-05-16 19:20:00,76.4,67.1,29.93,West,264,0.0,0.0,73,0.00,,,0.00,Wunderground v.1.15,2013-05-16 23:20:00,
2013-05-16 19:30:00,76.0,66.7,29.93,West,264,0.0,0.0,73,0.00,,,0.00,Wunderground v.1.15,2013-05-16 23:30:00,
2013-05-16 19:40:00,75.6,66.3,29.93,West,264,0.0,0.0,73,0.00,,,0.00,Wunderground v.1.15,2013-05-16 23:40:00,
2013-05-16 19:50:00,75.1,66.2,29.93,West,264,0.0,0.0,74,0.00,,,0.00,Wunderground v.1.15,2013-05-16 23:50:00,
2013-05-16 20:00:00,74.2,65.4,29.93,West,264,0.0,0.0,74,0.00,,,0.00,Wunderground v.1.15,2013-05-17 00:00:00,
2013-05-16 20:10:00,73.1,65.1,29.94,West,264,0.0,0.0,76,0.00,,,0.00,Wunderground v.1.15,2013-05-17 00:10:00,
2013-05-16 20:20:00,72.3,64.3,29.94,West,264,0.0,0.0,76,0.00,,,0.00,Wunderground v.1.15,2013-05-17 00:20:00,
2013-05-16 20:30:00,71.6,64.0,29.95,West,264,0.0,0.0,77,0.00,,,0.00,Wunderground v.1.15,2013-05-17 00:30:00,
2013-05-16 20:40:00,71.0,63.8,29.95,West,264,0.0,0.0,78,0.00,,,0.00,Wunderground v.1.15,2013-05-17 00:40:00,
2013-05-16 20:50:00,70.5,63.7,29.95,West,264,0.0,0.0,79,0.00,,,0.00,Wunderground v.1.15,2013-05-17 00:50:00,
2013-05-16 21:00:00,70.1,63.6,29.95,West,264,0.0,0.0,80,0.00,,,0.00,Wunderground v.1.15,2013-05-17 01:00:00,
2013-05-16 21:10:00,69.8,63.3,29.95,West,264,0.0,0.0,80,0.00,,,0.00,Wunderground v.1.15,2013-05-17 01:10:00,
2013-05-16 21:20:00,69.5,63.1,29.96,West,264,0.0,0.0,80,0.00,,,0.00,Wunderground v.1.15,2013-05-17 01:20:00,
2013-05-16 21:30:00,69.2,63.1,29.97,West,264,0.0,0.0,81,0.00,,,0.00,Wunderground v.1.15,2013-05-17 01:30:00,
2013-05-16 21:40:00,68.9,62.8,29.97,West,264,0.0,0.0,81,0.00,,,0.00,Wunderground v.1.15,2013-05-17 01:40:00,
2013-05-16 21:50:00,68.6,62.5,29.97,West,264,0.0,0.0,81,0.00,,,0.00,Wunderground v.1.15,2013-05-17 01:50:00,
2013-05-16 22:00:00,68.2,62.5,29.97,West,264,0.0,0.0,82,0.00,,,0.00,Wunderground v.1.15,2013-05-17 02:00:00,
2013-05-16 22:10:00,68.0,62.3,29.98,West,264,0.0,0.0,82,0.00,,,0.00,Wunderground v.1.15,2013-05-17 02:10:00,
2013-05-16 22:20:00,67.8,62.4,29.98,West,264,0.0,0.0,83,0.00,,,0.00,Wunderground v.1.15,2013-05-17 02:20:00,
2013-05-16 22:30:00,67.6,62.3,29.98,West,264,0.0,0.0,83,0.00,,,0.00,Wunderground v.1.15,2013-05-17 02:30:00,
2013-05-16 22:40:00,67.3,62.0,29.98,West,264,0.0,0.0,83,0.00,,,0.00,Wunderground v.1.15,2013-05-17 02:40:00,
2013-05-16 22:50:00,67.1,61.8,29.98,West,264,0.0,0.0,83,0.00,,,0.00,Wunderground v.1.15,2013-05-17 02:50:00,
2013-05-16 23:00:00,66.8,61.8,29.98,West,264,0.0,0.0,84,0.00,,,0.00,Wunderground v.1.15,2013-05-17 03:00:00,
2013-05-16 23:10:00,66.5,61.5,29.98,West,264,0.0,0.0,84,0.00,,,0.00,Wunderground v.1.15,2013-05-17 03:10:00,
2013-05-16 23:20:00,66.4,61.4,29.98,West,264,0.0,0.0,84,0.00,,,0.00,Wunderground v.1.15,2013-05-17 03:20:00,
2013-05-16 23:30:00,66.3,61.7,29.99,West,264,0.0,0.0,85,0.00,,,0.00,Wunderground v.1.15,2013-05-17 03:30:00,
2013-05-16 23:40:00,66.1,61.5,29.99,West,264,0.0,0.0,85,0.00,,,0.00,Wunderground v.1.15,2013-05-17 03:40:00,
2013-05-16 23:50:00,66.0,61.4,29.99,West,264,0.0,0.0,85,0.00,,,0.00,Wunderground v.1.15,2013-05-17 03:50:00,